Location: Pasadena, ca
(34.1243°N, 118.1037°W)
Time: 05:05:07
(UTC-07:00)

OTV 5 (USA 277) - Pass Details

Date: 13 October 2017
Orbit: 404 x 417 km, 43.0° (Epoch: 07 September)

Event Time Altitude Azimuth Distance (km) Brightness Sun altitude
Rises 20:30:51 0° 295° (WNW) 2,354 ? -27.8°
Reaches altitude 10° 20:33:28 10° 316° (NW) 1,490 ? -28.3°
Enters shadow 20:33:59 12° 323° (NW) 1,356 ? -28.4°
